| time (UTC) | temp F | wind direction | speed MPH | gust MPH | rain 1hr in | rain 24hr in | rain mn in | humidity % | barometer mb |
| 20260504231150 | 74 | 159 | 4.0 | 6.0 | 0.00 | 0.00 | 0.00 | 33 | 1006.7 |
| 20260504230646 | 75 | 159 | 6.0 | 9.0 | 0.00 | 0.00 | 0.00 | 33 | 1006.9 |
| 20260504230145 | 76 | 126 | 4.0 | 6.0 | 0.00 | 0.00 | 0.00 | 32 | 1006.5 |
| 20260504225643 | 76 | 244 | 2.0 | 3.0 | 0.00 | 0.00 | 0.00 | 29 | 1006.9 |
| 20260504225138 | 76 | 183 | 4.0 | 6.0 | 0.00 | 0.00 | 0.00 | 26 | 1006.5 |
| 20260504224636 | 77 | 181 | 4.0 | 7.0 | 0.00 | 0.00 | 0.00 | 26 | 1006.7 |
| 20260504224132 | 79 | 149 | 1.0 | 1.0 | 0.00 | 0.00 | 0.00 | 27 | 1006.5 |
| 20260504223630 | 79 | 227 | 2.0 | 4.0 | 0.00 | 0.00 | 0.00 | 29 | 1006.9 |
| 20260504223125 | 78 | 182 | 2.0 | 2.0 | 0.00 | 0.00 | 0.00 | 26 | 1006.7 |
| 20260504222623 | 78 | 175 | 2.0 | 6.0 | 0.00 | 0.00 | 0.00 | 27 | 1006.9 |
| 20260504222120 | 79 | 132 | 1.0 | 2.0 | 0.00 | 0.00 | 0.00 | 26 | 1006.9 |
| 20260504221617 | 79 | 138 | 1.0 | 2.0 | 0.00 | 0.00 | 0.00 | 29 | 1006.8 |
| 20260504221114 | 79 | 138 | 2.0 | 2.0 | 0.00 | 0.00 | 0.00 | 26 | 1006.8 |
| 20260504220610 | 79 | 146 | 2.0 | 2.0 | 0.00 | 0.00 | 0.00 | 23 | 1007.0 |
| 20260504220108 | 79 | 214 | 1.0 | 2.0 | 0.00 | 0.00 | 0.00 | 28 | 1007.1 |
| 20260504215603 | 79 | 130 | 1.0 | 1.0 | 0.00 | 0.00 | 0.00 | 28 | 1007.0 |
| 20260504215101 | 79 | 196 | 2.0 | 3.0 | 0.00 | 0.00 | 0.00 | 27 | 1007.0 |
| 20260504214557 | 78 | 133 | 1.0 | 1.0 | 0.00 | 0.00 | 0.00 | 30 | 1007.3 |
| 20260504214053 | 77 | 139 | 0.0 | 1.0 | 0.00 | 0.00 | 0.00 | 30 | 1007.3 |
| 20260504213550 | 78 | 138 | 2.0 | 4.0 | 0.00 | 0.00 | 0.00 | 27 | 1007.3 |
| 20260504213047 | 78 | 152 | 1.0 | 1.0 | 0.00 | 0.00 | 0.00 | 30 | 1007.3 |
| 20260504212543 | 79 | 165 | 3.0 | 3.0 | 0.00 | 0.00 | 0.00 | 30 | 1007.7 |
| 20260504212040 | 78 | 133 | 2.0 | 2.0 | 0.00 | 0.00 | 0.00 | 27 | 1007.7 |
| 20260504211537 | 78 | 133 | 1.0 | 2.0 | 0.00 | 0.00 | 0.00 | 32 | 1007.8 |
| 20260504211034 | 79 | 34 | 2.0 | 3.0 | 0.00 | 0.00 | 0.00 | 29 | 1007.8 |
| 20260504210531 | 78 | 115 | 2.0 | 3.0 | 0.00 | 0.00 | 0.00 | 31 | 1007.8 |
| 20260504210028 | 78 | 143 | 0.0 | 1.0 | 0.00 | 0.00 | 0.00 | 32 | 1008.0 |
| 20260504205526 | 78 | 142 | 1.0 | 1.0 | 0.00 | 0.00 | 0.00 | 32 | 1008.0 |
| 20260504205023 | 78 | 215 | 2.0 | 3.0 | 0.00 | 0.00 | 0.00 | 31 | 1008.0 |
| 20260504204521 | 78 | 133 | 0.0 | 0.0 | 0.00 | 0.00 | 0.00 | 31 | 1008.1 |
| 20260504204020 | 78 | 119 | 1.0 | 2.0 | 0.00 | 0.00 | 0.00 | 25 | 1008.2 |
| 20260504203518 | 77 | 127 | 2.0 | 3.0 | 0.00 | 0.00 | 0.00 | 27 | 1008.1 |
| 20260504203015 | 77 | 128 | 2.0 | 2.0 | 0.00 | 0.00 | 0.00 | 33 | 1008.2 |
| 20260504202510 | 78 | 207 | 4.0 | 7.0 | 0.00 | 0.00 | 0.00 | 28 | 1008.4 |
| 20260504202007 | 78 | 121 | 2.0 | 2.0 | 0.00 | 0.00 | 0.00 | 32 | 1008.1 |
| 20260504201504 | 77 | 131 | 1.0 | 1.0 | 0.00 | 0.00 | 0.00 | 36 | 1008.2 |
| 20260504201002 | 77 | 148 | 1.0 | 1.0 | 0.00 | 0.00 | 0.00 | 29 | 1008.6 |
| 20260504200458 | 77 | 153 | 1.0 | 2.0 | 0.00 | 0.00 | 0.00 | 31 | 1008.5 |
| 20260504195955 | 77 | 148 | 4.0 | 4.0 | 0.00 | 0.00 | 0.00 | 32 | 1008.6 |
| 20260504195451 | 76 | 155 | 1.0 | 1.0 | 0.00 | 0.00 | 0.00 | 32 | 1008.5 |
| 20260504194948 | 76 | 121 | 2.0 | 2.0 | 0.00 | 0.00 | 0.00 | 31 | 1008.6 |
| 20260504194444 | 76 | 250 | 2.0 | 2.0 | 0.00 | 0.00 | 0.00 | 32 | 1008.6 |
| 20260504193940 | 76 | 113 | 1.0 | 1.0 | 0.00 | 0.00 | 0.00 | 33 | 1008.8 |
| 20260504193437 | 76 | 131 | 1.0 | 1.0 | 0.00 | 0.00 | 0.00 | 30 | 1008.9 |
| 20260504192936 | 76 | 136 | 0.0 | 0.0 | 0.00 | 0.00 | 0.00 | 34 | 1008.8 |
| 20260504192432 | 76 | 129 | 1.0 | 1.0 | 0.00 | 0.00 | 0.00 | 32 | 1009.0 |
| 20260504191932 | 76 | 292 | 1.0 | 2.0 | 0.00 | 0.00 | 0.00 | 33 | 1009.0 |
| 20260504191429 | 75 | 141 | 1.0 | 1.0 | 0.00 | 0.00 | 0.00 | 35 | 1009.2 |
| 20260504190924 | 76 | 232 | 3.0 | 4.0 | 0.00 | 0.00 | 0.00 | 31 | 1009.2 |
| 20260504190420 | 75 | 145 | 2.0 | 2.0 | 0.00 | 0.00 | 0.00 | 36 | 1009.2 |
| 20260504185917 | 76 | 138 | 3.0 | 3.0 | 0.00 | 0.00 | 0.00 | 33 | 1009.3 |
| 20260504185414 | 76 | 120 | 2.0 | 3.0 | 0.00 | 0.00 | 0.00 | 34 | 1009.4 |
| 20260504184910 | 75 | 154 | 0.0 | 0.0 | 0.00 | 0.00 | 0.00 | 35 | 1009.3 |
| 20260504184406 | 76 | 164 | 2.0 | 2.0 | 0.00 | 0.00 | 0.00 | 34 | 1009.4 |
| 20260504183902 | 75 | 145 | 1.0 | 2.0 | 0.00 | 0.00 | 0.00 | 35 | 1009.5 |
| 20260504183400 | 75 | 136 | 1.0 | 1.0 | 0.00 | 0.00 | 0.00 | 32 | 1009.7 |
| 20260504182857 | 75 | 136 | 0.0 | 0.0 | 0.00 | 0.00 | 0.00 | 34 | 1009.7 |
| 20260504182354 | 76 | 140 | 3.0 | 4.0 | 0.00 | 0.00 | 0.00 | 32 | 1009.7 |
| 20260504181851 | 76 | 134 | 1.0 | 1.0 | 0.00 | 0.00 | 0.00 | 31 | 1009.7 |
| 20260504181348 | 77 | 146 | 2.0 | 2.0 | 0.00 | 0.00 | 0.00 | 35 | 1009.8 |
| 20260504180847 | 77 | 143 | 0.0 | 1.0 | 0.00 | 0.00 | 0.00 | 37 | 1009.8 |
| 20260504180345 | 76 | 145 | 1.0 | 1.0 | 0.00 | 0.00 | 0.00 | 34 | 1010.1 |
| 20260504175843 | 76 | 165 | 3.0 | 3.0 | 0.00 | 0.00 | 0.00 | 31 | 1010.1 |
| 20260504175339 | 75 | 134 | 1.0 | 1.0 | 0.00 | 0.00 | 0.00 | 40 | 1010.1 |
| 20260504174838 | 75 | 138 | 0.0 | 0.0 | 0.00 | 0.00 | 0.00 | 36 | 1010.1 |
| 20260504174335 | 75 | 129 | 0.0 | 1.0 | 0.00 | 0.00 | 0.00 | 32 | 1010.2 |
| 20260504173832 | 75 | 197 | 2.0 | 2.0 | 0.00 | 0.00 | 0.00 | 36 | 1010.0 |
| 20260504173329 | 74 | 138 | 0.0 | 0.0 | 0.00 | 0.00 | 0.00 | 34 | 1010.3 |
| 20260504172826 | 73 | 139 | 4.0 | 6.0 | 0.00 | 0.00 | 0.00 | 32 | 1010.1 |
| 20260504172322 | 73 | 173 | 2.0 | 3.0 | 0.00 | 0.00 | 0.00 | 32 | 1010.3 |
| 20260504171818 | 74 | 121 | 2.0 | 3.0 | 0.00 | 0.00 | 0.00 | 33 | 1010.1 |
| 20260504171315 | 75 | 173 | 3.0 | 3.0 | 0.00 | 0.00 | 0.00 | 33 | 1010.2 |
| 20260504170813 | 74 | 153 | 1.0 | 1.0 | 0.00 | 0.00 | 0.00 | 36 | 1010.3 |
| 20260504170309 | 74 | 129 | 1.0 | 1.0 | 0.00 | 0.00 | 0.00 | 37 | 1010.2 |
| 20260504160227 | 71 | 143 | 1.0 | 1.0 | 0.00 | 0.00 | 0.00 | 37 | 1010.5 |
| 20260504150653 | 68 | 135 | 1.0 | 1.0 | 0.00 | 0.00 | 0.00 | 36 | 1010.6 |
| 20260504150150 | 67 | 137 | 0.0 | 0.0 | 0.00 | 0.00 | 0.00 | 40 | 1010.6 |
| 20260504141119 | 57 | 143 | 0.0 | 0.0 | 0.00 | 0.00 | 0.00 | 52 | 1010.9 |
| 20260504140615 | 56 | 134 | 0.0 | 0.0 | 0.00 | 0.00 | 0.00 | 52 | 1010.9 |
| 20260504140111 | 56 | 132 | 0.0 | 0.0 | 0.00 | 0.00 | 0.00 | 52 | 1010.7 |
| 20260504130539 | 48 | 132 | 0.0 | 0.0 | 0.00 | 0.00 | 0.00 | 57 | 1010.6 |
| 20260504110427 | 52 | 137 | 0.0 | 0.0 | 0.00 | 0.00 | 0.00 | 45 | 1011.0 |
| 20260504100344 | 49 | 130 | 0.0 | 0.0 | 0.00 | 0.00 | 0.00 | 56 | 1010.6 |
| 20260504081737 | 51 | 138 | 0.0 | 0.0 | 0.00 | 0.00 | 0.00 | 56 | 1009.5 |
| 20260504081233 | 52 | 130 | 0.0 | 0.0 | 0.00 | 0.00 | 0.00 | 55 | 1009.7 |
| 20260504080730 | 53 | 133 | 0.0 | 1.0 | 0.00 | 0.00 | 0.00 | 54 | 1010.0 |
| 20260504080226 | 52 | 125 | 0.0 | 0.0 | 0.00 | 0.00 | 0.00 | 55 | 1009.6 |
| 20260504070153 | 58 | 125 | 2.0 | 3.0 | 0.00 | 0.00 | 0.00 | 37 | 1009.6 |
| 20260504060114 | 56 | 137 | 0.0 | 0.0 | 0.00 | 0.00 | 0.00 | 31 | 1009.8 |
| 20260504050542 | 59 | 133 | 0.0 | 0.0 | 0.00 | 0.00 | 0.00 | 30 | 1010.1 |
| 20260504045536 | 60 | 133 | 0.0 | 0.0 | 0.00 | 0.00 | 0.00 | 30 | 1010.2 |
| 20260504045032 | 59 | 130 | 0.0 | 0.0 | 0.00 | 0.00 | 0.00 | 29 | 1010.4 |
| 20260504044529 | 58 | 131 | 0.0 | 0.0 | 0.00 | 0.00 | 0.00 | 31 | 1010.3 |
| 20260504044026 | 58 | 135 | 0.0 | 0.0 | 0.00 | 0.00 | 0.00 | 31 | 1010.3 |
| 20260504043523 | 57 | 133 | 0.0 | 0.0 | 0.00 | 0.00 | 0.00 | 33 | 1010.3 |
| 20260504043021 | 57 | 137 | 0.0 | 0.0 | 0.00 | 0.00 | 0.00 | 31 | 1010.4 |
| 20260504042517 | 58 | 137 | 0.0 | 0.0 | 0.00 | 0.00 | 0.00 | 31 | 1010.4 |
| 20260504042014 | 58 | 137 | 0.0 | 0.0 | 0.00 | 0.00 | 0.00 | 31 | 1010.5 |
| 20260504041510 | 58 | 137 | 0.0 | 0.0 | 0.00 | 0.00 | 0.00 | 31 | 1010.4 |
| 20260504041006 | 58 | 137 | 0.0 | 0.0 | 0.00 | 0.00 | 0.00 | 31 | 1010.5 |
| 20260504040504 | 58 | 135 | 0.0 | 0.0 | 0.00 | 0.00 | 0.00 | 31 | 1010.3 |
| 20260504040000 | 59 | 134 | 0.0 | 0.0 | 0.00 | 0.00 | 0.00 | 30 | 1010.3 |
| 20260504035458 | 59 | 136 | 0.0 | 0.0 | 0.00 | 0.00 | 0.00 | 30 | 1010.3 |
| 20260504034954 | 60 | 136 | 0.0 | 0.0 | 0.00 | 0.00 | 0.00 | 30 | 1010.3 |
| 20260504034451 | 60 | 131 | 0.0 | 0.0 | 0.00 | 0.00 | 0.00 | 31 | 1010.4 |
| 20260504033948 | 60 | 127 | 0.0 | 0.0 | 0.00 | 0.00 | 0.00 | 30 | 1010.5 |
| 20260504033446 | 58 | 130 | 0.0 | 0.0 | 0.00 | 0.00 | 0.00 | 32 | 1010.4 |
| 20260504032943 | 58 | 131 | 0.0 | 0.0 | 0.00 | 0.00 | 0.00 | 34 | 1010.3 |
| 20260504032440 | 58 | 131 | 0.0 | 0.0 | 0.00 | 0.00 | 0.00 | 35 | 1010.5 |
| 20260504031937 | 59 | 131 | 0.0 | 0.0 | 0.00 | 0.00 | 0.00 | 34 | 1010.4 |
| 20260504031434 | 59 | 131 | 0.0 | 0.0 | 0.00 | 0.00 | 0.00 | 34 | 1010.2 |
| 20260504030930 | 60 | 131 | 0.0 | 0.0 | 0.00 | 0.00 | 0.00 | 34 | 1010.2 |
| 20260504030427 | 60 | 131 | 0.0 | 0.0 | 0.00 | 0.00 | 0.00 | 33 | 1010.2 |
| 20260504025923 | 61 | 131 | 0.0 | 0.0 | 0.00 | 0.00 | 0.00 | 33 | 1010.5 |
| 20260504025420 | 61 | 133 | 0.0 | 0.0 | 0.00 | 0.00 | 0.00 | 33 | 1010.4 |
| 20260504024917 | 62 | 132 | 0.0 | 0.0 | 0.00 | 0.00 | 0.00 | 33 | 1010.4 |
| 20260504024414 | 62 | 134 | 0.0 | 0.0 | 0.00 | 0.00 | 0.00 | 32 | 1010.4 |
| 20260504023911 | 63 | 148 | 0.0 | 0.0 | 0.00 | 0.00 | 0.00 | 30 | 1010.2 |
| 20260504023407 | 64 | 131 | 0.0 | 0.0 | 0.00 | 0.00 | 0.00 | 29 | 1010.3 |
| 20260504022903 | 65 | 131 | 0.0 | 0.0 | 0.00 | 0.00 | 0.00 | 28 | 1010.3 |
| 20260504022400 | 66 | 131 | 0.0 | 0.0 | 0.00 | 0.00 | 0.00 | 27 | 1010.4 |
| 20260504021856 | 67 | 131 | 0.0 | 0.0 | 0.00 | 0.00 | 0.00 | 26 | 1010.4 |
| 20260504021354 | 67 | 131 | 0.0 | 0.0 | 0.00 | 0.00 | 0.00 | 25 | 1010.4 |
| 20260504020851 | 68 | 131 | 0.0 | 0.0 | 0.00 | 0.00 | 0.00 | 25 | 1010.5 |
| 20260504020347 | 69 | 131 | 0.0 | 0.0 | 0.00 | 0.00 | 0.00 | 25 | 1010.6 |
| 20260504015843 | 69 | 132 | 0.0 | 0.0 | 0.00 | 0.00 | 0.00 | 25 | 1010.7 |
| 20260504015340 | 70 | 133 | 0.0 | 0.0 | 0.00 | 0.00 | 0.00 | 24 | 1010.4 |
| 20260504014836 | 70 | 131 | 1.0 | 1.0 | 0.00 | 0.00 | 0.00 | 23 | 1010.7 |
| 20260504014332 | 70 | 132 | 0.0 | 0.0 | 0.00 | 0.00 | 0.00 | 22 | 1010.7 |
| 20260504013830 | 71 | 132 | 1.0 | 2.0 | 0.00 | 0.00 | 0.00 | 21 | 1010.9 |
| 20260504013328 | 71 | 130 | 1.0 | 1.0 | 0.00 | 0.00 | 0.00 | 22 | 1011.0 |
| 20260504012824 | 71 | 123 | 2.0 | 2.0 | 0.00 | 0.00 | 0.00 | 21 | 1010.9 |
| 20260504012322 | 72 | 119 | 2.0 | 2.0 | 0.00 | 0.00 | 0.00 | 20 | 1011.0 |
| 20260504011819 | 72 | 136 | 0.0 | 0.0 | 0.00 | 0.00 | 0.00 | 21 | 1011.0 |
| 20260504011316 | 72 | 127 | 1.0 | 1.0 | 0.00 | 0.00 | 0.00 | 20 | 1010.7 |
| 20260504010811 | 72 | 133 | 0.0 | 1.0 | 0.00 | 0.00 | 0.00 | 22 | 1011.2 |
| 20260504010307 | 72 | 134 | 1.0 | 2.0 | 0.00 | 0.00 | 0.00 | 22 | 1011.1 |
| 20260504005804 | 72 | 127 | 2.0 | 3.0 | 0.00 | 0.00 | 0.00 | 19 | 1011.2 |
| 20260504005301 | 72 | 132 | 0.0 | 0.0 | 0.00 | 0.00 | 0.00 | 22 | 1011.2 |
| 20260504004759 | 73 | 126 | 0.0 | 1.0 | 0.00 | 0.00 | 0.00 | 21 | 1011.1 |
| 20260504004256 | 73 | 149 | 0.0 | 0.0 | 0.00 | 0.00 | 0.00 | 21 | 1011.4 |
| 20260504003752 | 73 | 251 | 1.0 | 2.0 | 0.00 | 0.00 | 0.00 | 20 | 1011.2 |
| 20260504003249 | 75 | 144 | 1.0 | 2.0 | 0.00 | 0.00 | 0.00 | 20 | 1011.4 |
| 20260504002746 | 75 | 137 | 1.0 | 1.0 | 0.00 | 0.00 | 0.00 | 20 | 1011.4 |
| 20260504002243 | 76 | 130 | 0.0 | 0.0 | 0.00 | 0.00 | 0.00 | 19 | 1011.2 |
| 20260504001741 | 76 | 151 | 1.0 | 2.0 | 0.00 | 0.00 | 0.00 | 21 | 1011.3 |
| 20260504001237 | 76 | 121 | 0.0 | 0.0 | 0.00 | 0.00 | 0.00 | 18 | 1011.5 |
| 20260504000734 | 77 | 121 | 1.0 | 1.0 | 0.00 | 0.00 | 0.00 | 18 | 1011.5 |
| 20260504000231 | 77 | 136 | 0.0 | 0.0 | 0.00 | 0.00 | 0.00 | 19 | 1011.4 |
| 20260503235416 | 79 | 132 | 1.0 | 1.0 | 0.00 | 0.00 | 0.00 | 19 | 1011.7 |
| 20260503234914 | 79 | 132 | 1.0 | 1.0 | 0.00 | 0.00 | 0.00 | 19 | 1011.7 |
| 20260503234411 | 78 | 133 | 0.0 | 1.0 | 0.00 | 0.00 | 0.00 | 23 | 1011.7 |
| 20260503233908 | 77 | 126 | 1.0 | 1.0 | 0.00 | 0.00 | 0.00 | 23 | 1011.9 |
| 20260503233405 | 76 | 129 | 2.0 | 2.0 | 0.00 | 0.00 | 0.00 | 23 | 1011.9 |
| 20260503232901 | 77 | 133 | 1.0 | 2.0 | 0.00 | 0.00 | 0.00 | 24 | 1011.9 |
| 20260503232341 | 75 | 82 | 1.0 | 1.0 | 0.00 | 0.00 | 0.00 | 25 | 1012.1 |
| 20260503231839 | 75 | 82 | 1.0 | 1.0 | 0.00 | 0.00 | 0.00 | 25 | 1012.1 |